Year,Month,Day,Hour,Minute,Value (Times are PST for temperature in C)
2016,08,27,00,00,19.20
2016,08,27,00,01,19.20
2016,08,27,00,02,19.20
2016,08,27,00,03,19.20
2016,08,27,00,04,19.20
2016,08,27,00,05,19.20
2016,08,27,00,06,19.20
2016,08,27,00,07,19.10
2016,08,27,00,08,19.10
2016,08,27,00,09,19.10
2016,08,27,00,10,19.10
2016,08,27,00,11,19.00
2016,08,27,00,12,19.00
2016,08,27,00,13,19.00
2016,08,27,00,14,19.00
2016,08,27,00,15,18.90
2016,08,27,00,16,18.90
2016,08,27,00,17,18.90
2016,08,27,00,18,18.90
2016,08,27,00,19,18.90
2016,08,27,00,20,18.90
2016,08,27,00,21,18.80
2016,08,27,00,22,18.80
2016,08,27,00,23,18.80
2016,08,27,00,24,18.70
2016,08,27,00,25,18.70
2016,08,27,00,26,18.70
2016,08,27,00,27,18.70
2016,08,27,00,28,18.70
2016,08,27,00,29,18.60
2016,08,27,00,30,18.60
2016,08,27,00,31,18.60
2016,08,27,00,32,18.60
2016,08,27,00,33,18.60
2016,08,27,00,34,18.50
2016,08,27,00,35,18.50
2016,08,27,00,36,18.50
2016,08,27,00,37,18.50
2016,08,27,00,38,18.50
2016,08,27,00,39,18.50
2016,08,27,00,40,18.50
2016,08,27,00,41,18.50
2016,08,27,00,42,18.50
2016,08,27,00,43,18.40
2016,08,27,00,44,18.40
2016,08,27,00,45,18.40
2016,08,27,00,46,18.40
2016,08,27,00,47,18.40
2016,08,27,00,48,18.40
2016,08,27,00,49,18.40
2016,08,27,00,50,18.40
2016,08,27,00,51,18.30
2016,08,27,00,52,18.30
2016,08,27,00,53,18.30
2016,08,27,00,54,18.30
2016,08,27,00,55,18.30
2016,08,27,00,56,18.30
2016,08,27,00,57,18.20
2016,08,27,00,58,18.20
2016,08,27,00,59,18.20
2016,08,27,01,00,18.20
2016,08,27,01,01,18.20
2016,08,27,01,02,18.20
2016,08,27,01,03,18.20
2016,08,27,01,04,18.20
2016,08,27,01,05,18.20
2016,08,27,01,06,18.10
2016,08,27,01,07,18.10
2016,08,27,01,08,18.10
2016,08,27,01,09,18.10
2016,08,27,01,10,18.10
2016,08,27,01,11,18.10
2016,08,27,01,12,18.10
2016,08,27,01,13,18.00
2016,08,27,01,14,18.00
2016,08,27,01,15,18.00
2016,08,27,01,16,17.90
2016,08,27,01,17,17.90
2016,08,27,01,18,17.90
2016,08,27,01,19,17.90
2016,08,27,01,20,17.80
2016,08,27,01,21,17.80
2016,08,27,01,22,17.80
2016,08,27,01,23,17.80
2016,08,27,01,24,17.80
2016,08,27,01,25,17.70
2016,08,27,01,26,17.70
2016,08,27,01,27,17.70
2016,08,27,01,28,17.70
2016,08,27,01,29,17.60
2016,08,27,01,30,17.60
2016,08,27,01,31,17.60
2016,08,27,01,32,17.60
2016,08,27,01,33,17.60
2016,08,27,01,34,17.50
2016,08,27,01,35,17.50
2016,08,27,01,36,17.50
2016,08,27,01,37,17.50
2016,08,27,01,38,17.50
2016,08,27,01,39,17.50
2016,08,27,01,40,17.50
2016,08,27,01,41,17.50
2016,08,27,01,42,17.50
2016,08,27,01,43,17.50
2016,08,27,01,44,17.50
2016,08,27,01,45,17.50
2016,08,27,01,46,17.50
2016,08,27,01,47,17.50
2016,08,27,01,48,17.50
2016,08,27,01,49,17.50
2016,08,27,01,50,17.50
2016,08,27,01,51,17.50
2016,08,27,01,52,17.50
2016,08,27,01,53,17.40
2016,08,27,01,54,17.40
2016,08,27,01,55,17.40
2016,08,27,01,56,17.40
2016,08,27,01,57,17.40
2016,08,27,01,58,17.40
2016,08,27,01,59,17.40
2016,08,27,02,00,17.40
2016,08,27,02,01,17.40
2016,08,27,02,02,17.40
2016,08,27,02,03,17.40
2016,08,27,02,04,17.40
2016,08,27,02,05,17.40
2016,08,27,02,06,17.40
2016,08,27,02,07,17.40
2016,08,27,02,08,17.30
2016,08,27,02,09,17.30
2016,08,27,02,10,17.30
2016,08,27,02,11,17.30
2016,08,27,02,12,17.30
2016,08,27,02,13,17.20
2016,08,27,02,14,17.20
2016,08,27,02,15,17.20
2016,08,27,02,16,17.20
2016,08,27,02,17,17.20
2016,08,27,02,18,17.20
2016,08,27,02,19,17.20
2016,08,27,02,20,17.20
2016,08,27,02,21,17.20
2016,08,27,02,22,17.20
2016,08,27,02,23,17.20
2016,08,27,02,24,17.10
2016,08,27,02,25,17.10
2016,08,27,02,26,17.00
2016,08,27,02,27,17.00
2016,08,27,02,28,16.90
2016,08,27,02,29,16.90
2016,08,27,02,30,16.90
2016,08,27,02,31,16.90
2016,08,27,02,32,16.90
2016,08,27,02,33,16.90
2016,08,27,02,34,16.90
2016,08,27,02,35,16.90
2016,08,27,02,36,16.90
2016,08,27,02,37,16.90
2016,08,27,02,38,16.90
2016,08,27,02,39,16.90
2016,08,27,02,40,16.90
2016,08,27,02,41,16.90
2016,08,27,02,42,16.90
2016,08,27,02,43,16.90
2016,08,27,02,44,16.90
2016,08,27,02,45,16.90
2016,08,27,02,46,16.90
2016,08,27,02,47,16.90
2016,08,27,02,48,16.90
2016,08,27,02,49,16.90
2016,08,27,02,50,16.90
2016,08,27,02,51,16.90
2016,08,27,02,52,16.90
2016,08,27,02,53,16.90
2016,08,27,02,54,16.90
2016,08,27,02,55,16.90
2016,08,27,02,56,16.90
2016,08,27,02,57,16.90
2016,08,27,02,58,16.90
2016,08,27,02,59,16.90
2016,08,27,03,00,16.80
2016,08,27,03,01,16.80
2016,08,27,03,02,16.80
2016,08,27,03,03,16.80
2016,08,27,03,04,16.80
2016,08,27,03,05,16.80
2016,08,27,03,06,16.80
2016,08,27,03,07,16.80
2016,08,27,03,08,16.80
2016,08,27,03,09,16.80
2016,08,27,03,10,16.90
2016,08,27,03,11,16.90
2016,08,27,03,12,16.80
2016,08,27,03,13,16.80
2016,08,27,03,14,16.80
2016,08,27,03,15,16.80
2016,08,27,03,16,16.80
2016,08,27,03,17,16.80
2016,08,27,03,18,16.80
2016,08,27,03,19,16.80
2016,08,27,03,20,16.80
2016,08,27,03,21,16.70
2016,08,27,03,22,16.70
2016,08,27,03,23,16.70
2016,08,27,03,24,16.70
2016,08,27,03,25,16.70
2016,08,27,03,26,16.70
2016,08,27,03,27,16.70
2016,08,27,03,28,16.70
2016,08,27,03,29,16.70
2016,08,27,03,30,16.70
2016,08,27,03,31,16.70
2016,08,27,03,32,16.70
2016,08,27,03,33,16.70
2016,08,27,03,34,16.70
2016,08,27,03,35,16.70
2016,08,27,03,36,16.70
2016,08,27,03,37,16.60
2016,08,27,03,38,16.60
2016,08,27,03,39,16.60
2016,08,27,03,40,16.60
2016,08,27,03,41,16.60
2016,08,27,03,42,16.60
2016,08,27,03,43,16.60
2016,08,27,03,44,16.60
2016,08,27,03,45,16.60
2016,08,27,03,46,16.60
2016,08,27,03,47,16.60
2016,08,27,03,48,16.60
2016,08,27,03,49,16.60
2016,08,27,03,50,16.60
2016,08,27,03,51,16.60
2016,08,27,03,52,16.60
2016,08,27,03,53,16.60
2016,08,27,03,54,16.60
2016,08,27,03,55,16.60
2016,08,27,03,56,16.60
2016,08,27,03,57,16.60
2016,08,27,03,58,16.60
2016,08,27,03,59,16.60
2016,08,27,04,00,16.60
2016,08,27,04,01,16.50
2016,08,27,04,02,16.50
2016,08,27,04,03,16.50
2016,08,27,04,04,16.40
2016,08,27,04,05,16.40
2016,08,27,04,06,16.40
2016,08,27,04,07,16.40
2016,08,27,04,08,16.30
2016,08,27,04,09,16.30
2016,08,27,04,10,16.30
2016,08,27,04,11,16.30
2016,08,27,04,12,16.30
2016,08,27,04,13,16.30
2016,08,27,04,14,16.30
2016,08,27,04,15,16.30
2016,08,27,04,16,16.40
2016,08,27,04,17,16.40
2016,08,27,04,18,16.40
2016,08,27,04,19,16.40
2016,08,27,04,20,16.40
2016,08,27,04,21,16.40
2016,08,27,04,22,16.40
2016,08,27,04,23,16.40
2016,08,27,04,24,16.40
2016,08,27,04,25,16.40
2016,08,27,04,26,16.40
2016,08,27,04,27,16.40
2016,08,27,04,28,16.40
2016,08,27,04,29,16.40
2016,08,27,04,30,16.30
2016,08,27,04,31,16.30
2016,08,27,04,32,16.30
2016,08,27,04,33,16.30
2016,08,27,04,34,16.20
2016,08,27,04,35,16.20
2016,08,27,04,36,16.20
2016,08,27,04,37,16.20
2016,08,27,04,38,16.10
2016,08,27,04,39,16.10
2016,08,27,04,40,16.10
2016,08,27,04,41,16.10
2016,08,27,04,42,16.10
2016,08,27,04,43,16.10
2016,08,27,04,44,16.10
2016,08,27,04,45,16.10
2016,08,27,04,46,16.10
2016,08,27,04,47,16.00
2016,08,27,04,48,16.00
2016,08,27,04,49,16.10
2016,08,27,04,50,16.10
2016,08,27,04,51,16.10
2016,08,27,04,52,16.10
2016,08,27,04,53,16.20
2016,08,27,04,54,16.20
2016,08,27,04,55,16.20
2016,08,27,04,56,16.20
2016,08,27,04,57,16.20
2016,08,27,04,58,16.20
2016,08,27,04,59,16.20
2016,08,27,05,00,16.20
2016,08,27,05,01,16.20
2016,08,27,05,02,16.20
2016,08,27,05,03,16.20
2016,08,27,05,04,16.20
2016,08,27,05,05,16.20
2016,08,27,05,06,16.20
2016,08,27,05,07,16.20
2016,08,27,05,08,16.20
2016,08,27,05,09,16.20
2016,08,27,05,10,16.20
2016,08,27,05,11,16.20
2016,08,27,05,12,16.20
2016,08,27,05,13,16.20
2016,08,27,05,14,16.20
2016,08,27,05,15,16.20
2016,08,27,05,16,16.20
2016,08,27,05,17,16.20
2016,08,27,05,18,16.20
2016,08,27,05,19,16.20
2016,08,27,05,20,16.20
2016,08,27,05,21,16.20
2016,08,27,05,22,16.20
2016,08,27,05,23,16.20
2016,08,27,05,24,16.20
2016,08,27,05,25,16.20
2016,08,27,05,26,16.20
2016,08,27,05,27,16.20
2016,08,27,05,28,16.20
2016,08,27,05,29,16.20
2016,08,27,05,30,16.20
2016,08,27,05,31,16.20
2016,08,27,05,32,16.20
2016,08,27,05,33,16.10
2016,08,27,05,34,16.10
2016,08,27,05,35,16.10
2016,08,27,05,36,16.10
2016,08,27,05,37,16.10
2016,08,27,05,38,16.10
2016,08,27,05,39,16.10
2016,08,27,05,40,16.10
2016,08,27,05,41,16.00
2016,08,27,05,42,16.00
2016,08,27,05,43,15.90
2016,08,27,05,44,15.90
2016,08,27,05,45,15.90
2016,08,27,05,46,15.90
2016,08,27,05,47,15.90
2016,08,27,05,48,15.90
2016,08,27,05,49,15.90
2016,08,27,05,50,15.90
2016,08,27,05,51,15.90
2016,08,27,05,52,15.90
2016,08,27,05,53,15.90
2016,08,27,05,54,15.90
2016,08,27,05,55,15.90
2016,08,27,05,56,15.90
2016,08,27,05,57,15.90
2016,08,27,05,58,15.90
2016,08,27,05,59,15.90
2016,08,27,06,00,15.90
2016,08,27,06,01,15.80
2016,08,27,06,02,15.80
2016,08,27,06,03,15.80
2016,08,27,06,04,15.80
2016,08,27,06,05,15.80
2016,08,27,06,06,15.80
2016,08,27,06,07,15.80
2016,08,27,06,08,15.80
2016,08,27,06,09,15.80
2016,08,27,06,10,15.80
2016,08,27,06,11,15.80
2016,08,27,06,12,15.80
2016,08,27,06,13,15.80
2016,08,27,06,14,15.80
2016,08,27,06,15,15.80
2016,08,27,06,16,15.70
2016,08,27,06,17,15.70
2016,08,27,06,18,15.70
2016,08,27,06,19,15.70
2016,08,27,06,20,15.70
2016,08,27,06,21,15.70
2016,08,27,06,22,15.70
2016,08,27,06,23,15.70
2016,08,27,06,24,15.70
2016,08,27,06,25,15.70
2016,08,27,06,26,15.70
2016,08,27,06,27,15.70
2016,08,27,06,28,15.70
2016,08,27,06,29,15.70
2016,08,27,06,30,15.70
2016,08,27,06,31,15.70
2016,08,27,06,32,15.70
2016,08,27,06,33,15.70
2016,08,27,06,34,15.70
2016,08,27,06,35,15.70
2016,08,27,06,36,15.70
2016,08,27,06,37,15.70
2016,08,27,06,38,15.70
2016,08,27,06,39,15.70
2016,08,27,06,40,15.70
2016,08,27,06,41,15.70
2016,08,27,06,42,15.70
2016,08,27,06,43,15.70
2016,08,27,06,44,15.70
2016,08,27,06,45,15.70
2016,08,27,06,46,15.70
2016,08,27,06,47,15.70
2016,08,27,06,48,15.70
2016,08,27,06,49,15.70
2016,08,27,06,50,15.70
2016,08,27,06,51,15.70
2016,08,27,06,52,15.70
2016,08,27,06,53,15.70
2016,08,27,06,54,15.70
2016,08,27,06,55,15.70
2016,08,27,06,56,15.80
2016,08,27,06,57,15.80
2016,08,27,06,58,15.80
2016,08,27,06,59,15.80
2016,08,27,07,00,15.80
2016,08,27,07,01,15.80
2016,08,27,07,02,15.80
2016,08,27,07,03,15.80
2016,08,27,07,04,15.80
2016,08,27,07,05,15.80
2016,08,27,07,06,15.80
2016,08,27,07,07,15.80
2016,08,27,07,08,15.80
2016,08,27,07,09,15.80
2016,08,27,07,10,15.80
2016,08,27,07,11,15.80
2016,08,27,07,12,15.80
2016,08,27,07,13,15.80
2016,08,27,07,14,15.80
2016,08,27,07,15,15.80
2016,08,27,07,16,15.80
2016,08,27,07,17,15.80
2016,08,27,07,18,15.90
2016,08,27,07,19,15.90
2016,08,27,07,20,15.90
2016,08,27,07,21,15.90
2016,08,27,07,22,15.90
2016,08,27,07,23,15.90
2016,08,27,07,24,15.90
2016,08,27,07,25,15.90
2016,08,27,07,26,15.90
2016,08,27,07,27,15.80
2016,08,27,07,28,15.90
2016,08,27,07,29,15.90
2016,08,27,07,30,16.00
2016,08,27,07,31,16.00
2016,08,27,07,32,16.00
2016,08,27,07,33,16.10
2016,08,27,07,34,16.10
2016,08,27,07,35,16.10
2016,08,27,07,36,16.20
2016,08,27,07,37,16.20
2016,08,27,07,38,16.20
2016,08,27,07,39,16.30
2016,08,27,07,40,16.30
2016,08,27,07,41,16.30
2016,08,27,07,42,16.40
2016,08,27,07,43,16.40
2016,08,27,07,44,16.40
2016,08,27,07,45,16.40
2016,08,27,07,46,16.50
2016,08,27,07,47,16.60
2016,08,27,07,48,16.60
2016,08,27,07,49,16.60
2016,08,27,07,50,16.60
2016,08,27,07,51,16.70
2016,08,27,07,52,16.70
2016,08,27,07,53,16.70
2016,08,27,07,54,16.70
2016,08,27,07,55,16.80
2016,08,27,07,56,16.80
2016,08,27,07,57,16.80
2016,08,27,07,58,16.80
2016,08,27,07,59,16.80
2016,08,27,08,00,16.90
2016,08,27,08,01,16.90
2016,08,27,08,02,17.00
2016,08,27,08,03,17.00
2016,08,27,08,04,17.10
2016,08,27,08,05,17.10
2016,08,27,08,06,17.20
2016,08,27,08,07,17.30
2016,08,27,08,08,17.40
2016,08,27,08,09,17.50
2016,08,27,08,10,17.60
2016,08,27,08,11,17.70
2016,08,27,08,12,17.70
2016,08,27,08,13,17.80
2016,08,27,08,14,17.90
2016,08,27,08,15,18.00
2016,08,27,08,16,18.10
2016,08,27,08,17,18.20
2016,08,27,08,18,18.30
2016,08,27,08,19,18.40
2016,08,27,08,20,18.50
2016,08,27,08,21,18.60
2016,08,27,08,22,18.60
2016,08,27,08,23,18.70
2016,08,27,08,24,18.80
2016,08,27,08,25,18.80
2016,08,27,08,26,18.90
2016,08,27,08,27,18.90
2016,08,27,08,28,18.90
2016,08,27,08,29,19.00
2016,08,27,08,30,19.10
2016,08,27,08,31,19.30
2016,08,27,08,32,19.40
2016,08,27,08,33,19.50
2016,08,27,08,34,19.70
2016,08,27,08,35,19.80
2016,08,27,08,36,20.00
2016,08,27,08,37,20.10
2016,08,27,08,38,20.20
2016,08,27,08,39,20.30
2016,08,27,08,40,20.40
2016,08,27,08,41,20.50
2016,08,27,08,42,20.50
2016,08,27,08,43,20.60
2016,08,27,08,44,20.60
2016,08,27,08,45,20.70
2016,08,27,08,46,20.70
2016,08,27,08,47,20.80
2016,08,27,08,48,20.80
2016,08,27,08,49,20.80
2016,08,27,08,50,20.90
2016,08,27,08,51,20.90
2016,08,27,08,52,20.90
2016,08,27,08,53,21.00
2016,08,27,08,54,21.00
2016,08,27,08,55,21.10
2016,08,27,08,56,21.10
2016,08,27,08,57,21.10
2016,08,27,08,58,21.10
2016,08,27,08,59,21.10
2016,08,27,09,00,21.10
2016,08,27,09,01,21.10
2016,08,27,09,02,21.10
2016,08,27,09,03,21.20
2016,08,27,09,04,21.30
2016,08,27,09,05,21.30
2016,08,27,09,06,21.40
2016,08,27,09,07,21.40
2016,08,27,09,08,21.50
2016,08,27,09,09,21.50
2016,08,27,09,10,21.60
2016,08,27,09,11,21.60
2016,08,27,09,12,21.60
2016,08,27,09,13,21.60
2016,08,27,09,14,21.50
2016,08,27,09,15,21.50
2016,08,27,09,16,21.40
2016,08,27,09,17,21.40
2016,08,27,09,18,21.30
2016,08,27,09,19,21.20
2016,08,27,09,20,21.10
2016,08,27,09,21,21.10
2016,08,27,09,22,21.10
2016,08,27,09,23,21.00
2016,08,27,09,24,21.00
2016,08,27,09,25,20.90
2016,08,27,09,26,20.80
2016,08,27,09,27,20.80
2016,08,27,09,28,20.70
2016,08,27,09,29,20.70
2016,08,27,09,30,20.60
2016,08,27,09,31,20.70
2016,08,27,09,32,20.70
2016,08,27,09,33,20.70
2016,08,27,09,34,20.70
2016,08,27,09,35,20.70
2016,08,27,09,36,20.80
2016,08,27,09,37,20.80
2016,08,27,09,38,20.80
2016,08,27,09,39,20.90
2016,08,27,09,40,21.00
2016,08,27,09,41,21.00
2016,08,27,09,42,21.00
2016,08,27,09,43,21.10
2016,08,27,09,44,21.10
2016,08,27,09,45,21.10
2016,08,27,09,46,21.20
2016,08,27,09,47,21.20
2016,08,27,09,48,21.30
2016,08,27,09,49,21.30
2016,08,27,09,50,21.40
2016,08,27,09,51,21.40
2016,08,27,09,52,21.50
2016,08,27,09,53,21.60
2016,08,27,09,54,21.70
2016,08,27,09,55,21.80
2016,08,27,09,56,21.80
2016,08,27,09,57,21.80
2016,08,27,09,58,21.80
2016,08,27,09,59,21.80
2016,08,27,10,00,21.80
2016,08,27,10,01,21.80
2016,08,27,10,02,21.80
2016,08,27,10,03,21.80
2016,08,27,10,04,21.80
2016,08,27,10,05,21.80
2016,08,27,10,06,21.90
2016,08,27,10,07,21.90
2016,08,27,10,08,22.00
2016,08,27,10,09,22.10
2016,08,27,10,10,22.20
2016,08,27,10,11,22.30
2016,08,27,10,12,22.50
2016,08,27,10,13,22.70
2016,08,27,10,14,22.90
2016,08,27,10,15,23.00
2016,08,27,10,16,23.20
2016,08,27,10,17,23.30
2016,08,27,10,18,23.40
2016,08,27,10,19,23.40
2016,08,27,10,20,23.40
2016,08,27,10,21,23.40
2016,08,27,10,22,23.50
2016,08,27,10,23,23.50
2016,08,27,10,24,23.50
2016,08,27,10,25,23.50
2016,08,27,10,26,23.60
2016,08,27,10,27,23.60
2016,08,27,10,28,23.60
2016,08,27,10,29,23.60
2016,08,27,10,30,23.70
2016,08,27,10,31,23.70
2016,08,27,10,32,23.80
2016,08,27,10,33,23.80
2016,08,27,10,34,23.80
2016,08,27,10,35,23.90
2016,08,27,10,36,23.90
2016,08,27,10,37,23.90
2016,08,27,10,38,23.90
2016,08,27,10,39,23.90
2016,08,27,10,40,23.90
2016,08,27,10,41,23.90
2016,08,27,10,42,24.00
2016,08,27,10,43,24.00
2016,08,27,10,44,24.00
2016,08,27,10,45,24.00
2016,08,27,10,46,24.00
2016,08,27,10,47,23.90
2016,08,27,10,48,23.90
2016,08,27,10,49,23.90
2016,08,27,10,50,23.90
2016,08,27,10,51,23.80
2016,08,27,10,52,23.70
2016,08,27,10,53,23.60
2016,08,27,10,54,23.60
2016,08,27,10,55,23.50
2016,08,27,10,56,23.40
2016,08,27,10,57,23.40
2016,08,27,10,58,23.40
2016,08,27,10,59,23.40
2016,08,27,11,00,23.40
2016,08,27,11,01,23.40
2016,08,27,11,02,23.50
2016,08,27,11,03,23.50
2016,08,27,11,04,23.60
2016,08,27,11,05,23.60
2016,08,27,11,06,23.70
2016,08,27,11,07,23.70
2016,08,27,11,08,23.70
2016,08,27,11,09,23.60
2016,08,27,11,10,23.50
2016,08,27,11,11,23.50
2016,08,27,11,12,23.40
2016,08,27,11,13,23.40
2016,08,27,11,14,23.40
2016,08,27,11,15,23.40
2016,08,27,11,16,23.40
2016,08,27,11,17,23.30
2016,08,27,11,18,23.30
2016,08,27,11,19,23.30
2016,08,27,11,20,23.30
2016,08,27,11,21,23.40
2016,08,27,11,22,23.40
2016,08,27,11,23,23.50
2016,08,27,11,24,23.50
2016,08,27,11,25,23.60
2016,08,27,11,26,23.60
2016,08,27,11,27,23.70
2016,08,27,11,28,23.80
2016,08,27,11,29,23.80
2016,08,27,11,30,23.80
2016,08,27,11,31,23.90
2016,08,27,11,32,23.80
2016,08,27,11,33,23.80
2016,08,27,11,34,23.80
2016,08,27,11,35,23.70
2016,08,27,11,36,23.70
2016,08,27,11,37,23.60
2016,08,27,11,38,23.60
2016,08,27,11,39,23.50
2016,08,27,11,40,23.40
2016,08,27,11,41,23.40
2016,08,27,11,42,23.40
2016,08,27,11,43,23.40
2016,08,27,11,44,23.40
2016,08,27,11,45,23.40
2016,08,27,11,46,23.40
2016,08,27,11,47,23.40
2016,08,27,11,48,23.40
2016,08,27,11,49,23.40
2016,08,27,11,50,23.40
2016,08,27,11,51,23.50
2016,08,27,11,52,23.40
2016,08,27,11,53,23.40
2016,08,27,11,54,23.40
2016,08,27,11,55,23.50
2016,08,27,11,56,23.50
2016,08,27,11,57,23.60
2016,08,27,11,58,23.60
2016,08,27,11,59,23.70
2016,08,27,12,00,23.70
2016,08,27,12,01,23.70
2016,08,27,12,02,23.70
2016,08,27,12,03,23.70
2016,08,27,12,04,23.70
2016,08,27,12,05,23.70
2016,08,27,12,06,23.70
2016,08,27,12,07,23.80
2016,08,27,12,08,23.80
2016,08,27,12,09,23.80
2016,08,27,12,10,23.80
2016,08,27,12,11,23.80
2016,08,27,12,12,23.80
2016,08,27,12,13,23.80
2016,08,27,12,14,23.80
2016,08,27,12,15,23.80
2016,08,27,12,16,23.80
2016,08,27,12,17,23.80
2016,08,27,12,18,23.80
2016,08,27,12,19,23.80
2016,08,27,12,20,23.80
2016,08,27,12,21,23.80
2016,08,27,12,22,23.80
2016,08,27,12,23,23.80
2016,08,27,12,24,23.80
2016,08,27,12,25,23.80
2016,08,27,12,26,23.80
2016,08,27,12,27,23.80
2016,08,27,12,28,23.80
2016,08,27,12,29,23.80
2016,08,27,12,30,23.80
2016,08,27,12,31,23.80
2016,08,27,12,32,23.80
2016,08,27,12,33,23.80
2016,08,27,12,34,23.80
2016,08,27,12,35,23.80
2016,08,27,12,36,23.70
2016,08,27,12,37,23.70
2016,08,27,12,38,23.60
2016,08,27,12,39,23.50
2016,08,27,12,40,23.40
2016,08,27,12,41,23.30
2016,08,27,12,42,23.20
2016,08,27,12,43,23.20
2016,08,27,12,44,23.10
2016,08,27,12,45,23.10
2016,08,27,12,46,23.20
2016,08,27,12,47,23.20
2016,08,27,12,48,23.20
2016,08,27,12,49,23.20
2016,08,27,12,50,23.20
2016,08,27,12,51,23.20
2016,08,27,12,52,23.30
2016,08,27,12,53,23.40
2016,08,27,12,54,23.40
2016,08,27,12,55,23.40
2016,08,27,12,56,23.40
2016,08,27,12,57,23.50
2016,08,27,12,58,23.60
2016,08,27,12,59,23.70
2016,08,27,13,00,23.80
2016,08,27,13,01,23.90
2016,08,27,13,02,23.90
2016,08,27,13,03,24.00
2016,08,27,13,04,24.00
2016,08,27,13,05,24.10
2016,08,27,13,06,24.10
2016,08,27,13,07,24.20
2016,08,27,13,08,24.20
2016,08,27,13,09,24.10
2016,08,27,13,10,24.10
2016,08,27,13,11,24.00
2016,08,27,13,12,24.00
2016,08,27,13,13,23.90
2016,08,27,13,14,23.80
2016,08,27,13,15,23.80
2016,08,27,13,16,23.80
2016,08,27,13,17,23.80
2016,08,27,13,18,23.80
2016,08,27,13,19,23.80
2016,08,27,13,20,23.80
2016,08,27,13,21,23.80
2016,08,27,13,22,23.80
2016,08,27,13,23,23.80
2016,08,27,13,24,23.80
2016,08,27,13,25,23.90
2016,08,27,13,26,23.90
2016,08,27,13,27,23.90
2016,08,27,13,28,24.00
2016,08,27,13,29,24.00
2016,08,27,13,30,24.10
2016,08,27,13,31,24.10
2016,08,27,13,32,24.10
2016,08,27,13,33,24.10
2016,08,27,13,34,24.10
2016,08,27,13,35,24.10
2016,08,27,13,36,24.10
2016,08,27,13,37,24.00
2016,08,27,13,38,24.00
2016,08,27,13,39,23.90
2016,08,27,13,40,23.90
2016,08,27,13,41,24.00
2016,08,27,13,42,24.00
2016,08,27,13,43,24.10
2016,08,27,13,44,24.10
2016,08,27,13,45,24.10
2016,08,27,13,46,24.20
2016,08,27,13,47,24.30
2016,08,27,13,48,24.30
2016,08,27,13,49,24.30
2016,08,27,13,50,24.40
2016,08,27,13,51,24.50
2016,08,27,13,52,24.50
2016,08,27,13,53,24.60
2016,08,27,13,54,24.70
2016,08,27,13,55,24.70
2016,08,27,13,56,24.80
2016,08,27,13,57,24.90
2016,08,27,13,58,24.80
2016,08,27,13,59,24.80
2016,08,27,14,00,24.70
2016,08,27,14,01,24.70
2016,08,27,14,02,24.60
2016,08,27,14,03,24.50
2016,08,27,14,04,24.40
2016,08,27,14,05,24.30
2016,08,27,14,06,24.40
2016,08,27,14,07,24.40
2016,08,27,14,08,24.50
2016,08,27,14,09,24.50
2016,08,27,14,10,24.60
2016,08,27,14,11,24.50
2016,08,27,14,12,24.50
2016,08,27,14,13,24.40
2016,08,27,14,14,24.40
2016,08,27,14,15,24.40
2016,08,27,14,16,24.30
2016,08,27,14,17,24.20
2016,08,27,14,18,24.10
2016,08,27,14,19,24.00
2016,08,27,14,20,24.00
2016,08,27,14,21,24.00
2016,08,27,14,22,23.90
2016,08,27,14,23,23.90
2016,08,27,14,24,23.90
2016,08,27,14,25,23.90
2016,08,27,14,26,23.80
2016,08,27,14,27,23.80
2016,08,27,14,28,23.80
2016,08,27,14,29,23.90
2016,08,27,14,30,23.80
2016,08,27,14,31,23.80
2016,08,27,14,32,23.90
2016,08,27,14,33,23.90
2016,08,27,14,34,23.90
2016,08,27,14,35,23.90
2016,08,27,14,36,24.00
2016,08,27,14,37,24.00
2016,08,27,14,38,24.10
2016,08,27,14,39,24.10
2016,08,27,14,40,24.10
2016,08,27,14,41,24.10
2016,08,27,14,42,24.00
2016,08,27,14,43,24.00
2016,08,27,14,44,24.00
2016,08,27,14,45,24.10
2016,08,27,14,46,24.20
2016,08,27,14,47,24.20
2016,08,27,14,48,24.20
2016,08,27,14,49,24.20
2016,08,27,14,50,24.20
2016,08,27,14,51,24.20
2016,08,27,14,52,24.20
2016,08,27,14,53,24.20
2016,08,27,14,54,24.20
2016,08,27,14,55,24.20
2016,08,27,14,56,24.10
2016,08,27,14,57,24.10
2016,08,27,14,58,24.00
2016,08,27,14,59,24.00
2016,08,27,15,00,23.90
2016,08,27,15,01,23.70
2016,08,27,15,02,23.60
2016,08,27,15,03,23.60
2016,08,27,15,04,23.60
2016,08,27,15,05,23.60
2016,08,27,15,06,23.60
2016,08,27,15,07,23.60
2016,08,27,15,08,23.70
2016,08,27,15,09,23.70
2016,08,27,15,10,23.80
2016,08,27,15,11,23.80
2016,08,27,15,12,23.80
2016,08,27,15,13,23.80
2016,08,27,15,14,23.80
2016,08,27,15,15,23.90
2016,08,27,15,16,23.90
2016,08,27,15,17,24.00
2016,08,27,15,18,24.00
2016,08,27,15,19,24.00
2016,08,27,15,20,23.90
2016,08,27,15,21,23.90
2016,08,27,15,22,23.80
2016,08,27,15,23,23.80
2016,08,27,15,24,23.80
2016,08,27,15,25,23.90
2016,08,27,15,26,23.90
2016,08,27,15,27,23.90
2016,08,27,15,28,24.00
2016,08,27,15,29,24.10
2016,08,27,15,30,24.10
2016,08,27,15,31,24.20
2016,08,27,15,32,24.30
2016,08,27,15,33,24.30
2016,08,27,15,34,24.40
2016,08,27,15,35,24.40
2016,08,27,15,36,24.40
2016,08,27,15,37,24.50
2016,08,27,15,38,24.50
2016,08,27,15,39,24.50
2016,08,27,15,40,24.50
2016,08,27,15,41,24.50
2016,08,27,15,42,24.50
2016,08,27,15,43,24.40
2016,08,27,15,44,24.30
2016,08,27,15,45,24.30
2016,08,27,15,46,24.20
2016,08,27,15,47,24.20
2016,08,27,15,48,24.20
2016,08,27,15,49,24.10
2016,08,27,15,50,24.10
2016,08,27,15,51,24.10
2016,08,27,15,52,24.00
2016,08,27,15,53,23.90
2016,08,27,15,54,23.80
2016,08,27,15,55,23.80
2016,08,27,15,56,23.80
2016,08,27,15,57,23.80
2016,08,27,15,58,23.70
2016,08,27,15,59,23.80
2016,08,27,16,00,23.80
2016,08,27,16,01,23.80
2016,08,27,16,02,23.80
2016,08,27,16,03,23.80
2016,08,27,16,04,23.80
2016,08,27,16,05,23.70
2016,08,27,16,06,23.70
2016,08,27,16,07,23.60
2016,08,27,16,08,23.60
2016,08,27,16,09,23.70
2016,08,27,16,10,23.60
2016,08,27,16,11,23.60
2016,08,27,16,12,23.50
2016,08,27,16,13,23.50
2016,08,27,16,14,23.50
2016,08,27,16,15,23.50
2016,08,27,16,16,23.40
2016,08,27,16,17,23.40
2016,08,27,16,18,23.30
2016,08,27,16,19,23.30
2016,08,27,16,20,23.30
2016,08,27,16,21,23.20
2016,08,27,16,22,23.20
2016,08,27,16,23,23.20
2016,08,27,16,24,23.20
2016,08,27,16,25,23.20
2016,08,27,16,26,23.20
2016,08,27,16,27,23.10
2016,08,27,16,28,23.10
2016,08,27,16,29,23.10
2016,08,27,16,30,23.10
2016,08,27,16,31,23.10
2016,08,27,16,32,23.10
2016,08,27,16,33,23.10
2016,08,27,16,34,23.10
2016,08,27,16,35,23.10
2016,08,27,16,36,22.90
2016,08,27,16,37,22.80
2016,08,27,16,38,22.80
2016,08,27,16,39,22.70
2016,08,27,16,40,22.70
2016,08,27,16,41,22.70
2016,08,27,16,42,22.70
2016,08,27,16,43,22.70
2016,08,27,16,44,22.70
2016,08,27,16,45,22.80
2016,08,27,16,46,22.80
2016,08,27,16,47,22.80
2016,08,27,16,48,22.80
2016,08,27,16,49,22.80
2016,08,27,16,50,22.90
2016,08,27,16,51,22.90
2016,08,27,16,52,23.00
2016,08,27,16,53,23.00
2016,08,27,16,54,23.10
2016,08,27,16,55,23.20
2016,08,27,16,56,23.20
2016,08,27,16,57,23.20
2016,08,27,16,58,23.10
2016,08,27,16,59,23.10
2016,08,27,17,00,23.10
2016,08,27,17,01,23.10
2016,08,27,17,02,23.10
2016,08,27,17,03,23.20
2016,08,27,17,04,23.20
2016,08,27,17,05,23.30
2016,08,27,17,06,23.30
2016,08,27,17,07,23.40
2016,08,27,17,08,23.40
2016,08,27,17,09,23.30
2016,08,27,17,10,23.30
2016,08,27,17,11,23.20
2016,08,27,17,12,23.20
2016,08,27,17,13,23.10
2016,08,27,17,14,23.10
2016,08,27,17,15,23.10
2016,08,27,17,16,23.00
2016,08,27,17,17,23.00
2016,08,27,17,18,23.00
2016,08,27,17,19,22.90